ONEWEB-0706, 61611

Orbit data source: Space-Track

ONEWEB-0706, 61611 is a payload satellite owned by Eut. One Web (UK) in LEO that was launched on Sun, 20 Oct 2024 UTC via an FALCON 9 launch vehicle from the Air Force Western Test Range (AFWTR). Payload-class satellites include a variety of spacecraft equipped with specific instruments for various scientific and technological missions. These include communications satellites like Starlink; space stations such as the ISS; scientific satellites like the Hubble; Earth observation satellites from companies like Planet Labs, Umbra, and HawkEye 360; GPS; miniature CubeSats for education and research; and military/defense satellites.

Loading next visibility...
Identifier
61611, 2024-188T
Orbit
LEO
Country
Flag of UKUK
Related business
Manufacturer
One Web
Mission
Operational Commercial Communications
Bus & Motor
ARROW, Unknown motor
Mass
148 kg wet, ~140 kg dry
Launch date (UTC)
2024-10-20 (1 year ago)
Launch vehicle
FALCON 9
Launch site
Air Force Western Test Range (AFWTR)
Object type
Payload
Rocket body
Debris
Shape & HBR
Trap Box + 2 Pan, 6.7 m
Radar Cross Section
3.464 m², Large (>1 m²)

Expand to show TLE details & history
Last TLE update: 17 hours ago

TLE from 17 hours ago
0 ONEWEB-0706
1 61611U 24188T   25351.71041000 -.00000471  00000-0 -13843-2 0  9992
2 61611  87.8805  72.4474 0001047 109.7984 250.3257 13.10370291 59613
Epoch: 2025-12-17T17:02Z
TLE epoch observation values (Epoch: 2025-12-17T17:02:59.423Z)
Latitude
0.00002°
Longitude
90.12344°
Altitude
1,224.882 km
Speed
7.242 km/s
True Right ascension
04h 49m 47s
True Declination
0° 00' 00"
Sunlit
Object was in full shadow at epoch
Visualization orbit readout
Latitude
Unknown
Longitude
Unknown
Altitude
Unknown
Speed
Unknown
Apparent Right ascension
Unknown
Apparent Declination
Unknown
Sunlit
N/A
Visualization observer readout
Local Sidereal Time
09:09:24
Azimuth
Unknown
Elevation
Unknown
Doppler factor
Unknown
Orbital elements
Apogee altitude
1,219.642 km
Perigee altitude
1,218.051 km
Semi-major axis
7,596.984 km
Eccentricity
0.0001
Inclination
87.8805°
RAAN
72.4474°
Arg. of periapsis
109.7984°
True anomaly
250.3144°
Mean anomaly
250.3257°
Eccentric anomaly
250.32005°
Mean motion
3.27779 °/min
Orbital period
109.83 mins
BSTAR
-0.0013843
Loading maneuver chart data...
Computing Atmospheric mass density...
Loading historical data...
Loading historical data...
Loading historical data...
Loading historical data...
Loading historical data...
Loading historical data...
Loading historical data...

Documentation

Showing up to 5 results
|